Showing default

TRANSIT 2A, 45

Orbit data source: Space-Track

TRANSIT 2A, 45 is a payload satellite owned by USN BuWeps (US) in LEO that was launched on Wed, 22 Jun 1960 UTC via a THOR ABLESTAR launch vehicle from the Air Force Eastern Test Range (AFETR). Payload-class satellites include a variety of spacecraft equipped with specific instruments for various scientific and technological missions. These include communications satellites like Starlink; space stations such as the ISS; scientific satellites like the Hubble; Earth observation satellites from companies like Planet Labs, Umbra, and HawkEye 360; GPS; miniature CubeSats for education and research; and military/defense satellites.

Loading next visibility...
Identifier
45, 1960-007A
Orbit
LEO
Country
Flag of USUS
Related business
Manufacturer
APL
Mission
Spacecraft
Bus & Motor
TRANSIT 1, Unknown motor
Mass
100 kg wet, 100 kg dry
Launch date (UTC)
1960-06-22 (65 years ago)
Launch vehicle
THOR ABLESTAR
Launch site
Air Force Eastern Test Range (AFETR)
Object type
Payload
Rocket body
Debris
Shape & HBR
Unknown
Radar Cross Section
Medium (>0.1 m² and <1 m²)

Expand to show TLE details & history
Last TLE update: 13 hours ago

TLE from 13 hours ago
0 TRANSIT 2A
1    45U 60007A   25302.18610119  .00001117  00000-0  29383-3 0  9999
2    45  66.6927 251.1462 0253325 326.3841  32.1403 14.35710360346887
Epoch: 2025-10-29T04:27Z
TLE epoch observation values (Epoch: 2025-10-29T04:27:59.142Z)
Latitude
-0.00003°
Longitude
146.38691°
Altitude
622.759 km
Speed
7.628 km/s
True Right ascension
16h 44m 35s
True Declination
0° 00' 00"
Sunlit
Object was in daylight at epoch
Visualization orbit readout
Latitude
Unknown
Longitude
Unknown
Altitude
Unknown
Speed
Unknown
Apparent Right ascension
Unknown
Apparent Declination
Unknown
Sunlit
N/A
Visualization observer readout
Local Sidereal Time
12:44:09
Azimuth
Unknown
Elevation
Unknown
Doppler factor
Unknown
Orbital elements
Apogee altitude
952.184 km
Perigee altitude
589.969 km
Semi-major axis
7,149.214 km
Eccentricity
0.02533
Inclination
66.6927°
RAAN
251.1462°
Arg. of periapsis
326.3841°
True anomaly
33.72692°
Mean anomaly
32.1403°
Eccentric anomaly
32.92931°
Mean motion
3.59051 °/min
Orbital period
100.26 mins
BSTAR
0.00029383
Loading maneuver chart data...
Computing Atmospheric mass density...
Loading historical data...
Loading historical data...
Loading historical data...
Loading historical data...
Loading historical data...
Loading historical data...
Loading historical data...

Documentation

Showing up to 5 results
|